User: anonymous   Login
Location: Unspecified
(0.0000°N, 0.0000°E)
Time: 12:27:55
(UTC+01:00)
Language:

Delta 168 - Orbit

View from above orbital plane
View from above orbital plane
View from above satellite
View from above satellite

Ground track
Ground track

The orbit data is extracted from the following two-line orbital elements,

1 14051U 83041B   14302.88183086  .00011288  00000-0  11178-2 0  6413
2 14051 025.3389 087.9802 1123700 207.4939 300.7038 13.02433782452639
Epoch (UTC): 29 October 2014 21:09:50
Eccentricity: 0.1123700
inclination: 25.3389°
perigee height: 395 km
apogee height: 2110 km
right ascension of ascending node: 87.9802°
argument of perigee: 207.4939°
revolutions per day: 13.02433782
mean anomaly at epoch: 300.7038°
orbit number at epoch: 45263

The dashed part of the orbit path shows where the satellite is in the earth's shadow,  

DLR